Tracking 20083 objects as of 9-Dec-2019
HD Live streaming from Space Station
objects crossing your sky now

FENGYUN 1C DEB

Track FENGYUN 1C DEB now!
10-day predictions


NORAD ID: 31832
Int'l Code: 1999-025CHW
Perigee: 816.0 km
Apogee: 1,041.4 km
Inclination: 97.8 °
Period: 103.4 minutes
Semi major axis: 7299 km
RCS: 0.0021 m2 (small)
Launch date: May 10, 1999
Source: People's Republic of China (PRC)
Launch site: Taiyaun Space Center, China (TSC)

Note: This is SATELLITE DEBRIS
aabbcc
Your satellite tracking list
Your tracking list is empty




NASA's NSSDC Master Catalog

Two Line Element Set (TLE):
1 31832U 99025CHW 19330.21739388  .00001055  00000-0  77326-3 0  9998
2 31832  97.8025 322.8960 0154405  28.3559 332.5901 13.92020400632916
Source of the keplerian elements: AFSPC